Location: Novo Ouro Preto
(19.8840°S, 43.9844°W)
Time: 09:53:58
(UTC+00:00)

Gbstr 26 Del rocket - Pass Details

Date: 18 September 2020
Orbit: 493 x 1264 km, 51.8° (Epoch: 22 October)

Event Time Altitude Azimuth Distance (km) Brightness Sun altitude
Rises 22:23:30 0° 228° (SW) 2,975 7.4 -22.5°
Reaches altitude 10° 22:25:41 10° 233° (SW) 2,158 6.6 -23.0°
Maximum altitude 22:30:32 51° 308° (NW) 1,008 4.3 -24.1°
Enters shadow 22:33:52 24° 12° (NNE) 1,731 5.1 -24.9°
